TimeAST,TemperatureF,Dew PointF,Humidity,Sea Level PressureIn,VisibilityMPH,Wind Direction,Wind SpeedMPH,Gust SpeedMPH,PrecipitationIn,Events,Conditions,WindDirDegrees,DateUTC
12:00 AM,96.8,66.2,37,29.56,-9999.0,NW,5.8,-,N/A,,Clear,320,2013-08-23 21:00:00
12:30 AM,95.0,68.0,41,29.56,-9999.0,NW,5.8,-,N/A,,Clear,320,2013-08-23 21:30:00
1:00 AM,95.0,68.0,41,29.56,-9999.0,NW,5.8,-,N/A,,Clear,310,2013-08-23 22:00:00
1:30 AM,95.0,69.8,44,29.56,-9999.0,WNW,5.8,-,N/A,,Clear,300,2013-08-23 22:30:00
2:00 AM,95.0,71.6,47,29.56,-9999.0,Variable,2.3,-,N/A,,Clear,0,2013-08-23 23:00:00
3:00 AM,93.2,73.4,52,29.56,-9999.0,West,4.6,-,N/A,,Clear,260,2013-08-24 00:00:00
3:30 AM,91.4,75.2,59,29.56,-9999.0,West,3.5,-,N/A,,Clear,260,2013-08-24 00:30:00
4:00 AM,91.4,75.2,59,29.56,-9999.0,West,5.8,-,N/A,,Clear,270,2013-08-24 01:00:00
4:30 AM,91.4,75.2,59,29.56,-9999.0,West,3.5,-,N/A,,Clear,260,2013-08-24 01:30:00
5:00 AM,91.4,75.2,59,29.56,-9999.0,West,5.8,-,N/A,,Clear,270,2013-08-24 02:00:00
5:30 AM,91.4,75.2,59,29.59,-9999.0,West,3.5,-,N/A,,Clear,260,2013-08-24 02:30:00
6:00 AM,91.4,75.2,59,29.59,-9999.0,West,4.6,-,N/A,,Clear,270,2013-08-24 03:00:00
6:30 AM,93.2,71.6,49,29.59,-9999.0,West,4.6,-,N/A,,Clear,270,2013-08-24 03:30:00
7:00 AM,95.0,69.8,44,29.59,-9999.0,West,3.5,-,N/A,,Clear,280,2013-08-24 04:00:00
7:30 AM,98.6,62.6,30,29.59,-9999.0,NW,8.1,-,N/A,,Clear,310,2013-08-24 04:30:00
8:00 AM,100.4,60.8,27,29.62,-9999.0,NW,8.1,-,N/A,,Clear,320,2013-08-24 05:00:00
8:30 AM,100.4,62.6,29,29.62,-9999.0,NW,8.1,-,N/A,,Clear,320,2013-08-24 05:30:00
9:00 AM,102.2,62.6,27,29.62,-9999.0,NW,8.1,-,N/A,,Clear,310,2013-08-24 06:00:00
9:30 AM,104.0,64.4,27,29.59,-9999.0,NNW,8.1,-,N/A,,Clear,330,2013-08-24 06:30:00
10:00 AM,104.0,64.4,27,29.59,-9999.0,WNW,8.1,-,N/A,,Clear,300,2013-08-24 07:00:00
10:30 AM,105.8,59.0,22,29.59,-9999.0,North,9.2,-,N/A,,Clear,350,2013-08-24 07:30:00
11:00 AM,105.8,60.8,23,29.59,-9999.0,North,11.5,-,N/A,,Clear,360,2013-08-24 08:00:00
11:30 AM,107.6,62.6,23,29.56,-9999.0,North,11.5,-,N/A,,Clear,350,2013-08-24 08:30:00
12:00 PM,107.6,64.4,25,29.56,-9999.0,North,13.8,-,N/A,,Clear,350,2013-08-24 09:00:00
12:30 PM,105.8,71.6,33,29.56,-9999.0,North,12.7,-,N/A,,Clear,10,2013-08-24 09:30:00
1:00 PM,105.8,68.0,30,29.56,-9999.0,North,12.7,-,N/A,,Clear,10,2013-08-24 10:00:00
1:30 PM,105.8,69.8,31,29.56,-9999.0,North,12.7,-,N/A,,Clear,10,2013-08-24 10:30:00
2:00 PM,105.8,71.6,33,29.53,-9999.0,North,12.7,-,N/A,,Clear,10,2013-08-24 11:00:00
2:30 PM,105.8,69.8,31,29.53,-9999.0,North,13.8,-,N/A,,Clear,10,2013-08-24 11:30:00
3:00 PM,104,72,26,29.55,9,NNE,12.7,,,,,20,2013-08-24 12:00:00
3:00 PM,104.0,71.6,35,29.53,-9999.0,NNE,12.7,-,N/A,,Clear,20,2013-08-24 12:00:00
4:00 PM,102.2,77.0,45,29.53,-9999.0,North,12.7,-,N/A,,Clear,10,2013-08-24 13:00:00
5:00 PM,98.6,78.8,53,29.53,-9999.0,NNE,12.7,-,N/A,,Clear,20,2013-08-24 14:00:00
5:30 PM,96.8,80.6,60,29.53,-9999.0,North,11.5,-,N/A,,Clear,10,2013-08-24 14:30:00
6:00 PM,96.8,80.6,60,29.53,-9999.0,North,9.2,-,N/A,,Clear,10,2013-08-24 15:00:00
7:00 PM,95.0,78.8,59,29.56,-9999.0,North,9.2,-,N/A,,Clear,10,2013-08-24 16:00:00
8:00 PM,95.0,78.8,59,29.56,-9999.0,NNE,8.1,-,N/A,,Clear,20,2013-08-24 17:00:00
9:00 PM,93,80,59,29.60,7,NNE,9.2,,,,,20,2013-08-24 18:00:00
9:00 PM,93.2,80.6,67,29.59,-9999.0,NNE,9.2,-,N/A,,Clear,20,2013-08-24 18:00:00
9:30 PM,93.2,78.8,63,29.59,-9999.0,North,10.4,-,N/A,,Clear,10,2013-08-24 18:30:00
10:00 PM,93.2,80.6,67,29.59,-9999.0,NNE,8.1,-,N/A,,Clear,20,2013-08-24 19:00:00
10:30 PM,91.4,82.4,75,29.56,-9999.0,NNE,4.6,-,N/A,,Clear,20,2013-08-24 19:30:00
11:00 PM,91.4,82.4,75,29.56,-9999.0,NE,4.6,-,N/A,,Clear,40,2013-08-24 20:00:00
11:30 PM,91.4,82.4,75,29.56,-9999.0,NNE,4.6,-,N/A,,Clear,30,2013-08-24 20:30:00